Change the Weather History Date:

Monday, November 14, 2011

  Actual Average Record
Temperature  
Mean Temperature 46 °F -  
Max Temperature 57 °F 49 °F 66 °F (1999)
Min Temperature 35 °F 23 °F 9 °F (2000)
Degree Days  
Heating Degree Days 19    
Moisture  
Dew Point 31 °F    
Average Humidity 66    
Maximum Humidity 86    
Minimum Humidity 30    
Precipitation  
Precipitation 0.00 in - - ()
Sea Level Pressure  
Sea Level Pressure 29.87 in    
Wind  
Wind Speed 14 mph (SSW)    
Max Wind Speed 20 mph    
Max Gust Speed 26 mph    
Visibility 10 miles    
Events      
Averages and records for this station are not official NWS values.
T = Trace of Precipitation, MM = Missing Value Source: NWS Daily Summary

Daily Weather History Graph

Daily Weather History Graph

Search for Another Location

Airport or City:

Trip Planner

Search our weather history database for the weather conditions in past years. The results will help you decide how hot, cold, wet, or windy it might be!

Date:

Astronomy

Nov. 14, 2011 Rise Set
Actual Time 7:12 AM MST 5:20 PM MST
Civil Twilight 6:44 AM MST 5:48 PM MST
Nautical Twilight 6:12 AM MST 6:20 PM MST
Astronomical Twilight 5:40 AM MST 6:51 PM MST
Moon 8:31 PM MST (11/14) 10:32 AM MST (11/14)
Length of Visible Light 11h 04m
Length of Day
10h 07m
Waning Gibbous, 86% of the Moon is Illuminated
Nov 14
Waning Gibbous
Nov 18
Last Quarter
Nov 24
New
Dec 2
First Quarter
Dec 10
Full

Hourly Weather History & Observations

Time (MST) Temp. Windchill Dew Point Humidity Pressure Visibility Wind Dir Wind Speed Gust Speed Precip Events Conditions
12:52 AM 35.1 °F 25.5 °F 30.0 °F 82% 29.88 in 10.0 mi SW 15.0 mph - N/A   Clear
1:52 AM 35.1 °F 26.4 °F 30.0 °F 82% 29.88 in 10.0 mi SW 12.7 mph - N/A   Clear
2:52 AM 35.1 °F 25.9 °F 30.0 °F 82% 29.88 in 10.0 mi SSW 13.8 mph - N/A   Clear
3:52 AM 35.1 °F 25.2 °F 30.0 °F 82% 29.86 in 10.0 mi SW 16.1 mph - N/A   Clear
4:52 AM 36.0 °F 26.7 °F 30.9 °F 82% 29.86 in 10.0 mi SSW 15.0 mph - N/A   Scattered Clouds
5:52 AM 36.0 °F 27.5 °F 30.9 °F 82% 29.87 in 10.0 mi SW 12.7 mph - N/A   Clear
6:52 AM 37.0 °F 27.7 °F 30.9 °F 79% 29.88 in 10.0 mi SW 16.1 mph - N/A   Partly Cloudy
7:52 AM 37.9 °F 29.2 °F 32.0 °F 79% 29.89 in 10.0 mi SSW 15.0 mph - N/A   Overcast
8:52 AM 42.1 °F 33.9 °F 33.1 °F 70% 29.90 in 10.0 mi SSW 17.3 mph - N/A   Scattered Clouds
9:52 AM 44.1 °F 36.2 °F 33.1 °F 65% 29.92 in 10.0 mi SSW 18.4 mph - N/A   Mostly Cloudy
10:52 AM 46.9 °F - 35.1 °F 63% 29.91 in 10.0 mi South 19.6 mph 26.5 mph N/A   Clear
11:52 AM 52.0 °F - 36.0 °F 54% 29.89 in 10.0 mi South 19.6 mph - N/A   Clear
12:52 PM 55.0 °F - 34.0 °F 45% 29.84 in 10.0 mi SSW 16.1 mph - N/A   Clear
1:52 PM 57.0 °F - 30.9 °F 37% 29.81 in 10.0 mi SSW 10.4 mph - N/A   Clear
2:52 PM 55.9 °F - 28.9 °F 36% 29.78 in 10.0 mi South 8.1 mph - N/A   Clear
3:52 PM 57.9 °F - 26.1 °F 30% 29.78 in 10.0 mi SSW 13.8 mph - N/A   Clear
4:52 PM 53.1 °F - 27.0 °F 37% 29.79 in 10.0 mi SW 6.9 mph - N/A   Clear
5:52 PM 44.1 °F 41.5 °F 25.0 °F 47% 29.85 in 10.0 mi South 4.6 mph - N/A   Clear
6:52 PM 43.0 °F 39.5 °F 26.1 °F 51% 29.88 in 10.0 mi SSW 5.8 mph - N/A   Clear
7:00 PM - - - N/A% - - North - - N/A   Unknown
7:52 PM 41.0 °F 34.7 °F 30.0 °F 65% 29.90 in 10.0 mi South 10.4 mph - N/A   Clear
8:52 PM 41.0 °F 34.3 °F 34.0 °F 76% 29.91 in 10.0 mi South 11.5 mph - N/A   Clear
9:52 PM 39.0 °F 32.8 °F 33.1 °F 79% 29.94 in 10.0 mi SSW 9.2 mph - N/A   Clear
10:52 PM 37.0 °F 28.9 °F 33.1 °F 86% 29.94 in 10.0 mi SW 12.7 mph - N/A   Clear
11:52 PM 36.0 °F 28.0 °F 32.0 °F 86% 29.92 in 10.0 mi SSW 11.5 mph - N/A   Clear